Wind_Speed
75 75 76 76 77 76 76 75 75 75 75 75 76 79 83 87 90 94 98 100 98 99 100 83 68 65 60 60 69 72 72 74 72 71 72 68 62 59 58 58 57 58 59 58 56 54 52 49 47 44 42 41 40 39 39 38 38 37 35 31 25 21 20 20 19 19 21 21 22 22 21 20 19 16 15 16 15 14 14 14 13 12 12 11 11 11 10 11
73 74 75 75 75 75 75 75 74 75 75 74 75 77 82 87 90 94 98 101 101 99 102 94 74 67 63 57 65 73 69 72 75 75 73 66 62 62 60 60 60 59 59 59 57 55 53 50 48 46 45 44 42 41 41 40 39 38 37 32 27 25 25 25 21 19 20 22 22 23 22 22 20 18 16 16 15 15 16 15 14 13 13 12 12 11 11 12
72 73 73 74 74 74 74 74 74 74 74 74 74 76 80 87 90 93 98 102 104 100 102 103 86 69 66 59 60 70 67 67 75 76 72 66 63 63 62 61 61 60 60 59 58 56 53 51 50 49 48 47 45 43 42 42 41 39 38 32 27 28 30 29 25 21 21 22 23 23 23 23 22 20 18 16 16 17 16 15 14 14 14 14 13 13 13 13
71 72 72 73 73 73 72 72 73 73 73 73 73 74 79 86 90 92 98 103 104 102 101 106 98 78 69 64 60 66 68 67 74 74 69 66 65 64 62 62 61 61 60 58 58 57 55 54 54 53 52 50 48 46 44 42 42 40 38 33 29 32 33 31 29 25 23 23 24 24 23 24 24 22 20 18 17 18 17 15 15 15 15 14 14 14 14 14
71 71 71 72 72 72 71 71 71 72 72 71 71 73 78 84 88 90 96 104 105 102 102 105 105 89 75 69 62 64 69 70 72 70 68 67 66 64 62 62 63 61 61 59 57 56 56 56 56 55 54 53 51 49 46 42 43 41 37 34 33 34 33 32 31 29 27 26 26 26 25 25 25 23 22 20 19 19 17 16 16 15 15 15 16 16 16 16
70 70 71 70 71 71 70 70 70 70 70 70 70 71 76 81 84 88 94 102 105 102 102 104 106 97 82 71 63 63 70 73 70 65 67 69 67 65 63 63 64 63 62 61 58 56 57 57 58 57 56 54 52 50 46 43 43 42 38 37 36 36 34 33 33 31 30 28 27 28 27 26 26 25 24 22 21 20 18 18 16 15 15 16 17 17 16 17
69 69 70 69 70 70 70 69 69 69 68 68 68 69 74 78 81 85 91 100 104 101 101 103 105 102 90 75 64 64 73 75 69 64 64 67 67 65 64 65 65 65 63 62 59 57 57 58 58 58 57 55 53 49 46 45 43 41 40 38 37 38 38 36 35 34 32 30 29 29 27 27 26 27 25 23 23 21 19 19 17 15 16 17 18 18 18 17
68 69 69 68 68 69 70 69 68 68 67 66 66 68 71 75 78 81 87 97 102 100 99 101 104 105 98 85 71 68 74 73 67 63 64 65 66 66 66 66 66 65 63 62 60 57 56 57 58 58 58 56 52 49 47 47 45 42 40 38 37 37 39 40 38 36 34 32 31 29 28 27 28 28 26 24 24 23 21 20 18 17 17 18 18 18 19 18
67 67 67 67 67 68 69 69 68 67 66 65 65 67 69 71 75 78 84 94 100 98 96 99 103 106 105 96 83 74 70 68 64 63 64 65 66 68 68 67 66 65 64 63 61 58 57 57 57 57 57 56 53 50 49 49 48 43 40 41 41 38 40 44 42 39 37 35 33 31 30 29 28 28 25 25 26 25 23 22 21 19 18 18 18 18 19 19
65 66 65 66 65 66 68 69 69 67 65 64 64 66 67 69 72 75 81 89 97 95 93 97 99 104 107 102 94 77 65 66 65 64 64 63 67 68 69 68 66 65 64 63 62 58 57 56 55 55 56 56 55 53 52 52 49 45 43 46 47 45 45 46 44 41 39 37 35 33 33 32 30 27 23 25 28 27 25 25 23 22 21 20 18 18 19 19
61 63 64 64 64 65 66 68 69 67 65 63 63 65 66 67 70 72 77 85 93 92 89 93 94 99 103 105 101 77 62 65 65 65 65 62 65 67 67 69 67 65 64 63 62 58 57 56 55 55 55 56 56 55 55 55 51 48 48 49 50 51 51 49 46 43 40 38 37 35 35 34 32 25 20 26 30 29 28 27 26 25 23 21 19 19 19 20
58 61 61 62 62 63 65 66 68 68 66 63 63 65 65 66 68 70 74 82 89 89 86 87 90 94 99 108 104 76 61 65 64 66 68 61 61 65 65 67 66 64 63 62 61 59 58 57 56 56 55 54 54 56 56 56 54 52 52 52 52 54 55 53 50 47 43 40 38 38 39 36 31 23 22 29 31 30 30 29 28 27 25 23 21 20 20 21
56 58 59 60 60 61 63 65 67 68 67 65 63 64 64 65 67 68 72 78 84 85 82 82 88 92 98 107 100 79 64 64 65 68 70 65 61 62 61 62 64 63 61 61 60 59 57 55 55 56 56 54 52 54 55 55 56 56 56 56 55 56 57 54 52 51 48 44 41 41 42 36 29 25 27 32 33 32 32 29 29 29 28 26 24 22 22 21
55 56 58 59 59 59 61 63 65 67 67 66 64 64 64 64 66 67 69 75 80 81 78 79 86 90 95 102 102 91 73 64 66 69 72 70 66 64 61 59 61 59 57 58 60 60 59 56 54 55 57 56 53 53 54 55 56 57 58 59 59 60 58 54 52 51 49 47 43 44 45 36 28 29 31 34 34 34 31 29 30 30 30 29 27 25 24 23
54 55 56 57 58 58 59 61 63 65 67 66 66 65 64 63 65 67 68 72 76 76 75 77 83 88 92 99 105 102 84 70 68 69 73 72 69 68 65 60 60 58 55 55 56 58 61 59 56 57 59 58 56 54 54 55 56 58 59 60 60 61 58 54 52 51 49 49 46 47 46 36 28 32 35 35 35 35 33 30 31 31 32 31 30 28 27 25
54 54 54 55 56 57 58 60 61 63 65 66 66 65 64 63 64 67 67 69 72 73 73 76 82 85 90 99 105 105 92 74 67 69 73 70 68 68 66 62 61 60 58 55 55 57 61 60 58 60 60 58 58 56 56 56 56 57 58 59 59 59 57 53 53 52 50 50 49 49 46 36 31 34 38 37 35 36 35 32 32 32 33 34 32 31 29 27
55 54 53 53 53 55 57 58 60 61 63 65 66 66 65 63 64 67 67 68 70 71 70 74 80 80 87 98 102 101 92 75 67 69 69 66 67 67 65 63 62 62 62 60 60 60 61 60 59 61 61 60 58 57 58 58 57 56 56 56 56 56 55 54 53 52 50 51 50 49 46 38 34 36 39 39 37 37 37 35 34 33 33 34 33 32 31 29
54 53 52 52 52 53 56 56 58 59 61 63 64 65 65 63 64 67 69 69 70 71 70 74 79 79 87 97 97 97 91 79 70 68 66 63 65 69 66 63 63 63 65 64 63 63 64 62 61 62 63 62 61 60 60 58 54 53 52 53 53 53 52 51 49 47 48 49 49 50 47 40 36 38 40 40 40 40 40 38 37 35 33 34 34 33 32 31
54 52 51 51 51 52 54 55 56 58 60 62 63 64 64 63 65 68 70 71 72 74 75 77 80 82 90 97 97 98 92 85 77 68 65 62 63 70 66 61 63 65 66 68 68 68 69 68 66 65 65 64 63 60 57 54 50 50 50 51 51 50 48 46 43 42 45 47 48 49 48 40 38 40 41 41 43 43 42 40 38 37 34 33 34 34 34 33
54 51 51 51 50 51 52 54 55 57 60 62 63 64 64 64 66 69 71 71 72 74 75 76 77 80 88 93 95 97 93 90 85 73 66 62 61 68 66 57 60 67 68 68 69 72 72 72 71 66 62 62 60 56 53 53 52 52 52 52 51 49 46 43 40 41 44 47 48 48 48 42 40 42 41 43 46 46 44 40 37 36 36 34 34 34 35 34
55 52 51 50 50 50 51 54 55 57 59 61 62 63 63 63 64 65 68 69 70 71 73 73 74 77 83 87 92 96 96 95 90 77 67 63 58 64 68 58 56 66 70 68 70 73 74 74 72 65 59 58 57 54 54 56 56 55 54 51 51 49 45 41 40 41 44 46 47 47 48 45 42 42 41 44 49 47 43 40 37 36 36 36 35 34 35 34
55 53 51 51 50 49 50 53 55 57 59 60 61 62 60 58 57 58 61 65 67 68 72 73 73 77 81 85 88 90 93 94 92 84 74 67 59 60 68 61 55 62 69 71 72 75 77 76 70 64 61 59 57 55 55 56 58 58 55 52 51 48 44 41 40 41 44 46 47 47 49 46 42 43 42 46 50 46 42 39 37 36 36 36 34 34 35 35
54 52 51 51 50 49 50 52 54 57 58 59 59 58 56 55 56 57 57 59 62 65 72 73 73 77 82 86 87 84 85 89 94 93 85 76 62 57 67 65 55 58 69 75 72 73 77 73 67 64 63 62 61 59 56 57 59 60 57 55 53 49 45 42 40 41 44 46 47 47 50 47 43 45 45 46 49 45 40 38 36 35 35 33 33 34 34 34
55 53 52 51 49 50 50 51 54 56 57 56 55 53 51 52 55 56 56 57 59 63 69 70 71 77 82 88 88 84 82 85 91 96 95 86 68 58 65 67 58 58 69 75 71 71 70 65 65 67 65 64 65 62 59 58 59 60 58 56 54 50 46 41 39 42 44 46 48 47 51 49 44 46 45 43 47 44 38 35 34 33 32 32 33 32 31 32
56 54 52 50 50 49 49 52 54 54 55 55 52 50 50 51 53 53 55 58 60 62 66 69 72 77 82 87 87 85 85 82 81 89 96 90 75 63 63 65 61 59 66 71 72 71 67 65 66 66 67 69 69 67 64 61 59 59 58 56 54 50 46 43 40 43 45 47 48 48 52 51 43 44 43 41 45 42 35 34 32 30 31 30 29 29 29 30
57 55 52 49 49 48 49 51 51 51 53 52 49 48 49 50 50 51 54 57 61 65 68 72 74 76 81 85 84 84 87 83 74 79 92 91 79 67 63 63 61 58 59 65 70 71 69 67 65 65 69 72 72 70 67 64 62 61 57 54 53 50 47 46 43 45 47 47 47 47 52 52 43 43 41 41 45 42 34 33 29 27 27 25 24 26 27 29
55 55 52 49 48 48 48 48 48 50 50 48 46 46 48 49 48 49 51 55 61 66 69 73 74 75 79 81 81 79 87 92 78 70 83 93 86 75 68 64 61 60 60 62 68 70 68 66 64 68 72 73 72 70 66 64 63 61 57 54 53 50 50 49 45 47 48 47 48 47 51 53 45 40 41 43 45 42 35 30 26 25 24 21 22 25 27 29
54 55 52 50 48 47 47 44 44 47 46 44 44 45 47 48 45 46 51 57 62 64 69 73 74 73 74 78 79 76 84 94 85 74 78 88 89 79 71 67 62 60 63 65 63 61 64 64 62 66 72 72 69 66 64 63 62 60 58 55 53 52 52 51 47 48 49 49 50 48 49 54 48 38 39 44 45 43 35 26 23 23 23 22 23 24 26 28
53 53 51 48 47 46 45 43 42 44 43 40 42 45 47 47 47 50 54 60 62 60 66 72 73 74 74 76 77 75 78 83 82 81 78 79 85 79 67 64 62 61 61 63 59 55 61 62 57 62 69 68 64 64 65 63 62 61 58 56 54 52 52 51 50 49 50 53 52 49 47 52 50 39 38 44 45 41 30 21 23 25 24 25 24 24 26 26
50 50 50 49 49 47 45 42 41 42 42 41 43 46 48 51 55 57 61 63 60 57 63 70 74 78 76 75 75 76 77 77 77 82 76 70 77 78 67 56 57 62 61 63 64 58 58 61 60 63 65 63 64 66 65 63 62 61 59 57 55 52 49 49 51 49 52 56 53 49 47 51 52 41 39 44 42 35 28 25 27 28 27 27 25 24 25 25
49 49 51 50 49 46 43 41 40 41 42 43 45 47 50 55 58 62 64 62 57 55 61 68 73 77 78 76 76 78 77 73 74 80 76 65 63 71 75 65 57 57 55 60 67 62 59 63 65 63 61 63 67 66 66 64 60 58 58 56 54 53 48 46 49 50 54 56 52 48 48 52 52 41 38 41 38 33 31 30 29 29 29 28 26 25 25 25
51 49 50 50 49 46 42 38 36 40 44 45 48 51 53 57 61 65 64 59 57 57 59 66 71 74 78 76 75 78 79 74 74 79 77 71 63 63 72 77 72 64 56 57 64 64 62 63 63 63 61 63 66 66 67 66 62 60 58 55 53 54 51 47 48 51 53 53 50 49 50 54 52 41 36 37 36 34 32 30 29 29 31 30 28 27 25 24
52 50 50 50 48 45 41 36 35 41 45 46 50 55 57 60 64 66 63 61 60 56 55 62 65 70 76 77 74 75 77 75 74 76 76 75 72 66 65 70 74 71 64 59 59 62 62 61 63 66 66 65 65 68 69 69 67 66 62 58 56 56 55 54 53 54 54 53 51 50 53 56 53 46 39 34 34 34 33 31 31 30 31 32 30 28 25 24
51 51 50 49 47 45 41 36 37 43 47 48 54 58 61 64 64 62 62 64 60 52 52 57 60 65 73 76 74 74 75 75 71 72 76 76 76 74 68 65 67 68 68 66 62 62 61 61 62 64 64 64 63 63 65 66 66 66 64 63 61 59 59 60 60 60 59 58 56 55 58 57 51 49 43 34 31 33 34 33 31 30 31 32 31 28 26 26
50 51 50 48 46 44 39 36 39 45 49 52 56 62 66 67 63 61 62 62 58 52 51 54 57 62 69 72 72 71 72 74 71 69 74 77 78 79 76 70 67 64 64 66 66 64 63 60 57 56 57 61 61 60 61 65 68 67 66 66 66 65 62 61 61 62 61 61 61 61 60 55 48 48 45 36 32 32 33 33 32 31 32 33 32 29 27 28
49 50 49 48 46 43 38 36 41 48 51 54 58 64 66 64 61 60 59 58 57 53 50 53 57 61 66 70 72 72 70 72 73 70 71 75 76 79 80 77 73 65 58 59 62 62 62 58 54 54 55 57 59 60 61 65 69 69 69 70 69 67 65 63 62 62 62 64 64 64 62 55 51 51 48 41 37 34 33 34 34 34 36 37 33 29 28 29
48 47 47 47 44 43 40 37 43 51 52 56 60 62 62 61 59 57 56 56 55 52 50 53 58 61 65 70 71 72 72 73 75 71 69 73 74 75 77 77 76 68 56 53 58 59 58 56 55 54 53 53 55 57 58 62 67 70 72 70 68 68 66 64 64 65 65 66 66 65 63 59 57 55 51 46 41 38 35 34 36 37 39 38 34 31 30 29
47 46 47 46 43 43 41 39 47 53 54 58 62 61 59 61 60 57 57 57 54 52 51 52 56 59 63 69 69 68 71 75 77 72 66 68 72 75 75 74 77 73 63 58 58 58 56 58 58 54 52 54 56 58 60 61 65 70 70 67 67 69 68 65 65 66 66 67 67 66 65 64 61 57 54 48 42 39 35 34 36 38 39 38 35 35 33 30
48 47 46 42 41 43 41 42 51 55 56 62 64 61 59 60 60 58 58 59 57 56 54 52 53 56 60 66 67 66 68 73 77 74 66 63 67 71 71 71 73 74 73 70 67 64 60 58 59 59 58 59 58 62 64 63 64 66 69 71 72 70 67 65 65 65 65 66 67 68 68 67 62 58 56 51 43 39 36 35 36 37 38 38 37 38 36 33
48 47 43 39 40 43 43 48 56 59 59 62 62 60 58 59 61 60 59 59 57 57 57 53 51 54 57 62 65 65 66 69 74 74 69 63 62 64 65 67 69 70 72 73 73 72 68 63 61 60 63 65 64 64 63 60 59 61 64 69 71 71 71 69 67 66 66 66 67 70 72 68 62 59 58 55 47 40 37 35 35 37 39 38 38 39 38 35
47 47 41 38 42 45 48 55 61 62 60 61 61 60 58 58 59 59 61 61 58 56 57 54 50 51 54 59 63 65 65 68 73 76 74 67 62 61 62 61 62 66 70 73 74 73 72 70 65 61 63 65 63 59 56 54 54 54 56 58 60 63 67 70 72 72 71 71 70 72 74 72 66 62 60 57 51 43 39 37 36 37 39 39 38 39 38 36
47 46 38 39 45 49 53 59 63 63 62 61 60 58 59 59 57 57 60 62 60 57 56 56 51 49 51 55 59 63 65 68 73 78 77 70 61 58 60 59 55 59 65 67 67 68 70 71 69 66 62 59 56 54 53 54 53 54 59 60 60 61 65 68 72 72 72 73 73 74 77 76 69 64 61 58 54 47 42 40 36 36 39 39 39 38 37 35
46 43 38 42 49 53 58 62 63 64 64 61 58 58 59 60 59 59 58 59 61 58 56 56 53 50 51 53 55 60 64 67 73 77 76 73 63 56 58 61 56 56 59 61 61 64 68 69 70 70 67 63 60 58 57 55 54 56 61 63 64 64 63 63 66 68 70 72 71 73 77 76 69 64 61 59 56 50 45 43 40 37 38 39 38 37 37 36
44 42 41 47 53 57 62 64 64 65 64 59 57 59 62 61 60 61 59 58 59 58 55 54 52 51 52 51 52 56 61 66 71 76 77 76 69 60 59 62 60 58 57 57 59 61 64 67 70 71 73 74 72 69 68 66 61 60 60 60 61 60 57 56 57 61 67 70 71 73 77 76 71 66 63 61 60 55 49 46 46 44 43 42 41 41 41 41
45 45 46 50 55 60 63 62 62 65 63 57 56 60 63 61 61 62 59 57 57 56 56 53 49 49 51 51 52 53 58 64 68 73 79 81 76 67 63 62 61 58 55 54 54 54 58 63 67 69 73 76 78 78 73 67 63 62 60 58 58 58 56 53 50 54 59 61 66 74 77 76 73 71 70 66 64 61 54 50 52 53 52 50 48 48 48 48
47 48 51 55 57 60 61 60 62 64 61 57 57 60 62 61 60 61 58 56 55 54 55 55 51 50 51 53 55 54 56 60 64 70 76 82 83 76 68 64 62 59 55 55 55 53 55 60 62 65 66 67 70 72 70 67 66 66 63 60 58 57 55 52 52 54 52 51 58 65 67 71 73 74 74 72 69 66 61 56 55 56 56 53 51 51 52 52
50 51 56 59 59 60 60 60 63 65 61 56 56 58 60 60 60 60 58 57 55 53 54 56 53 51 52 53 55 57 56 56 60 65 71 78 84 84 77 70 66 62 57 58 59 55 55 58 59 60 61 61 62 64 67 71 72 68 63 59 57 56 56 58 61 57 49 53 59 54 52 62 68 71 75 76 72 70 67 62 58 57 55 51 49 49 49 49
53 55 59 59 59 59 59 59 60 62 62 59 57 56 57 59 61 60 59 58 57 54 56 57 50 45 48 50 51 55 58 57 56 59 64 72 81 87 87 81 74 67 60 60 62 60 57 57 56 56 56 56 61 66 68 71 73 72 69 67 65 65 67 68 67 61 56 61 59 47 46 54 56 62 72 75 74 73 71 66 62 58 54 49 47 48 47 45
56 59 61 61 59 55 56 57 57 57 59 59 58 56 55 57 60 60 59 58 58 57 59 59 52 44 44 46 46 50 54 57 57 56 58 65 73 82 88 89 85 78 68 62 62 63 61 57 54 55 54 53 58 64 65 67 69 70 72 73 71 69 67 62 60 58 55 57 54 48 51 54 50 52 61 68 72 74 72 69 65 59 53 47 46 47 46 44
59 61 63 62 56 50 52 58 59 58 60 60 58 55 54 55 57 59 60 58 57 57 59 60 59 53 47 45 44 44 47 50 54 55 54 56 64 73 81 87 89 87 81 72 64 63 64 61 56 54 55 55 56 57 58 62 65 64 65 67 64 61 60 56 54 53 52 54 54 53 57 56 51 48 52 57 64 69 70 69 68 64 57 51 48 48 47 45
60 61 64 61 51 43 47 56 59 60 62 63 59 56 56 56 55 56 58 57 54 54 55 57 59 57 52 47 44 42 42 43 47 51 53 53 55 61 69 78 85 89 91 85 76 69 67 64 60 56 58 58 56 56 57 58 59 61 62 61 59 58 58 56 55 55 55 55 55 56 59 56 49 48 52 53 55 60 64 67 68 67 62 54 50 49 48 48
56 59 64 61 50 44 47 54 58 60 60 60 58 56 56 57 55 54 56 56 54 52 53 54 55 54 52 47 43 41 41 42 43 46 51 53 55 56 59 65 73 82 90 93 90 83 74 69 65 62 62 61 58 58 57 57 62 66 63 59 58 58 57 57 55 54 54 54 55 58 58 51 47 50 52 53 54 56 57 59 62 63 61 55 50 48 48 49
Wind_Direction
235 234 233 232 232 231 231 230 231 231 231 233 234 236 237 235 230 225 226 229 230 230 228 217 207 208 210 217 221 222 224 222 220 221 222 221 221 220 220 222 222 222 224 224 223 224 226 227 228 228 228 228 228 229 233 236 237 236 236 236 237 241 245 242 236 234 237 237 238 239 239 240 239 234 234 238 237 231 224 213 203 198 195 193 192 194 193 187
237 235 234 233 233 232 231 230 230 231 231 233 234 236 237 235 231 226 224 227 229 230 229 221 210 205 207 213 218 221 224 224 222 221 221 220 220 219 218 221 222 223 225 224 223 223 225 227 228 228 227 228 228 227 230 234 237 237 237 237 237 239 240 240 237 236 239 238 236 238 237 238 239 237 234 235 238 236 229 220 209 202 199 198 194 192 193 192
237 236 235 234 233 232 231 231 230 231 231 232 234 235 236 235 232 227 223 225 228 228 229 225 214 206 205 211 216 217 218 223 224 223 221 220 220 219 218 219 222 223 225 225 224 223 223 225 226 227 226 226 227 227 227 230 235 236 236 237 236 238 240 241 241 239 241 240 237 236 236 237 238 238 236 233 236 237 233 227 218 207 204 205 200 193 194 195
238 237 236 235 234 233 231 231 230 231 231 232 234 235 236 235 233 228 223 224 228 227 228 227 219 210 206 210 215 216 214 218 224 223 221 220 220 220 217 218 221 223 224 224 224 223 222 224 225 226 226 225 225 226 226 227 231 235 235 235 235 237 240 242 242 242 243 243 238 236 234 234 235 236 237 233 234 237 235 232 225 215 208 209 207 200 197 197
239 238 237 236 235 233 232 230 230 231 232 233 234 236 235 234 232 229 223 223 227 227 227 228 223 215 209 210 212 215 215 217 222 222 220 219 219 220 218 218 220 223 224 224 223 223 223 224 225 226 226 225 225 226 226 226 229 233 235 234 235 239 241 243 244 245 247 247 241 237 235 233 231 233 235 234 235 236 235 234 229 223 215 212 212 206 202 200
238 238 237 236 235 234 232 230 230 231 232 233 235 236 235 233 232 229 224 223 227 228 227 228 225 218 212 209 210 215 217 217 219 218 218 219 217 218 218 218 220 221 224 224 223 222 223 224 225 226 227 227 226 227 228 229 229 231 235 237 237 240 243 244 245 245 247 248 244 238 237 236 231 231 233 234 236 234 233 235 231 227 222 218 218 214 208 204
236 237 237 237 236 234 233 231 230 231 232 233 235 236 235 233 231 229 225 223 227 229 228 228 226 220 214 208 207 215 218 216 216 214 216 218 216 216 217 218 219 220 222 224 224 223 224 225 225 227 227 228 228 228 229 231 232 230 232 237 240 242 243 245 244 243 244 247 247 242 239 239 235 231 230 232 237 234 232 234 231 227 226 222 222 220 215 209
235 235 236 236 236 235 233 232 231 231 232 233 235 236 235 233 231 229 225 223 226 229 229 228 226 221 217 212 208 214 216 214 214 213 215 217 215 214 216 217 218 219 220 223 224 224 225 225 226 227 228 228 229 229 230 232 233 231 231 235 241 242 242 243 243 242 243 245 247 245 241 240 239 235 230 232 237 235 234 235 230 227 226 225 223 222 221 216
234 234 235 235 236 235 233 232 231 231 232 233 234 235 235 234 231 228 225 223 225 229 229 228 227 223 220 218 215 215 211 209 211 212 215 217 215 213 215 217 218 218 219 221 223 223 226 226 226 228 229 229 229 229 231 232 232 232 231 233 238 241 241 240 239 240 241 243 246 247 244 241 239 237 233 233 237 236 235 236 233 228 226 226 224 223 224 221
234 233 234 234 235 235 234 232 232 232 232 233 234 235 235 234 231 228 225 223 225 228 229 229 228 226 224 221 220 216 205 203 207 209 212 216 217 215 215 216 217 218 218 220 221 221 225 227 226 228 230 229 229 229 230 232 232 231 231 232 235 239 240 240 238 237 238 240 243 245 246 244 238 236 237 238 238 234 234 235 235 232 228 226 224 223 224 225
233 232 232 233 233 234 234 233 232 232 232 233 233 235 236 234 232 228 224 223 224 227 228 228 229 228 225 224 222 212 199 201 203 206 209 212 217 217 216 217 217 218 218 219 220 220 223 226 226 227 229 228 228 228 229 231 232 231 231 232 233 236 239 240 239 238 238 239 241 243 245 245 239 235 240 244 240 234 232 233 234 234 232 229 225 223 223 224
231 231 231 232 232 233 233 233 232 232 232 233 233 235 236 235 232 228 224 222 224 227 228 227 229 228 226 225 221 207 199 202 200 205 208 207 214 216 216 218 218 218 219 220 221 220 221 224 226 227 228 228 228 229 229 230 232 231 232 233 234 236 238 239 240 241 241 241 240 242 243 243 243 241 244 247 244 237 231 231 232 234 234 232 229 225 223 224
231 230 230 231 231 232 232 232 232 231 231 232 234 235 236 235 232 228 225 223 224 226 227 226 227 228 228 226 217 205 202 200 198 205 206 205 210 212 213 216 217 217 219 221 222 221 221 223 225 228 228 228 228 229 229 230 231 232 233 234 235 237 238 239 240 242 244 243 240 243 242 240 244 246 244 246 246 241 234 231 232 233 234 233 232 229 226 225
230 229 229 230 230 231 231 231 231 231 231 232 233 235 237 235 232 228 225 223 223 226 225 224 226 228 229 226 216 210 206 197 199 204 204 205 208 210 212 215 216 215 217 219 221 222 222 221 223 228 229 227 227 228 228 229 230 232 233 234 235 237 238 239 241 242 244 245 242 243 242 237 240 245 244 245 246 244 238 233 231 233 234 232 231 231 229 228
230 230 229 229 229 230 230 230 230 231 230 231 233 235 237 236 232 228 225 223 223 226 224 222 225 226 228 225 219 215 209 198 198 202 202 205 207 211 213 214 215 215 216 217 219 222 224 221 219 224 228 226 226 226 227 227 227 230 231 232 234 236 238 238 241 242 243 245 243 243 242 236 236 243 245 244 245 246 242 236 232 231 233 233 230 230 230 229
230 230 229 228 228 229 230 230 229 230 229 229 231 234 236 236 232 227 224 223 223 225 222 220 223 225 227 225 220 217 211 199 196 198 201 203 205 209 212 213 214 214 216 216 215 219 223 223 219 222 225 225 225 225 227 227 226 228 230 232 233 236 238 238 239 241 242 244 244 243 243 238 235 240 245 246 246 247 244 240 236 231 232 233 231 230 230 230
229 229 228 228 228 228 229 229 228 229 228 228 230 233 235 236 232 226 224 223 222 223 220 218 221 223 225 224 221 219 211 197 194 197 199 202 202 204 208 211 212 213 216 217 214 215 220 223 223 223 224 224 224 224 226 227 226 227 230 232 233 235 237 237 238 240 241 243 244 246 244 238 234 238 244 246 245 245 245 242 240 235 232 234 234 232 231 231
228 228 229 229 227 227 228 228 228 227 227 227 229 231 233 234 231 225 222 222 222 220 217 215 217 220 222 223 222 218 208 198 198 198 198 204 202 201 206 210 210 211 214 216 215 215 216 220 223 225 224 223 222 222 225 227 228 229 233 235 236 235 236 238 239 241 243 245 245 246 244 238 235 237 241 245 244 242 242 241 241 238 234 235 236 235 233 233
228 228 228 228 227 227 227 227 227 226 226 226 227 229 231 233 230 224 221 221 221 218 214 212 214 217 220 222 222 218 209 202 202 201 200 203 202 201 204 207 209 210 213 214 214 214 214 215 218 222 224 224 223 224 228 231 231 233 235 238 239 238 238 240 242 243 245 246 246 245 245 239 235 237 239 242 243 242 241 241 241 242 240 237 238 238 237 235
226 226 227 228 228 227 226 226 225 224 224 225 226 228 230 232 229 224 221 221 221 220 218 214 213 217 220 222 223 219 213 208 206 205 201 199 201 203 203 205 207 209 212 213 213 214 214 214 216 218 223 226 226 226 229 231 231 232 233 235 238 238 238 238 239 240 242 243 244 245 245 239 234 236 238 241 244 243 243 243 244 245 246 243 240 238 239 237
224 225 227 228 228 227 226 225 224 223 224 225 226 228 231 234 232 226 223 223 223 221 220 216 213 216 219 222 223 221 218 215 210 207 201 198 202 205 204 205 207 209 210 212 213 214 213 214 215 215 220 225 226 226 227 229 231 231 232 234 237 238 236 235 236 237 239 241 242 244 243 237 233 235 236 240 244 244 244 245 245 246 247 247 243 239 239 239
224 225 226 227 227 227 225 224 223 223 224 225 226 228 231 234 232 227 225 226 225 222 220 215 211 212 215 219 222 221 221 219 213 208 205 202 203 208 206 205 208 209 209 211 213 213 213 214 215 214 218 222 223 224 226 228 230 231 232 233 236 237 235 233 233 235 238 240 241 243 243 238 232 233 233 237 243 244 244 245 245 246 246 248 246 241 238 238
222 223 224 226 226 226 225 223 223 223 224 225 227 229 231 232 228 223 222 224 223 221 219 216 211 211 214 217 218 219 221 222 217 212 210 208 205 209 209 206 208 209 210 212 212 213 215 217 217 215 216 220 222 222 223 225 227 229 229 231 234 235 234 233 232 234 237 240 240 242 244 239 232 231 231 235 241 242 242 243 244 245 246 247 246 243 239 237
221 222 223 224 225 225 224 224 223 223 224 225 227 229 229 227 224 221 220 221 219 217 217 215 212 212 214 217 218 217 219 221 220 216 214 213 209 209 211 208 208 210 211 213 213 215 219 219 217 214 214 218 221 221 222 223 225 226 227 229 232 233 234 233 230 233 236 238 239 240 243 239 231 231 231 232 239 241 240 241 240 242 244 245 245 244 242 238
220 221 222 223 224 224 225 225 224 223 224 225 226 227 227 225 221 220 219 219 217 214 213 213 211 211 213 216 217 217 218 220 222 220 217 215 212 210 211 209 211 214 214 213 214 216 218 216 213 213 216 218 220 221 221 223 225 227 227 228 231 231 232 231 228 231 235 236 238 239 243 240 230 231 230 229 237 239 236 237 236 237 240 242 244 244 242 239
219 219 220 222 222 224 225 224 223 223 224 224 225 225 225 223 219 217 218 219 216 211 210 210 209 209 210 213 215 216 217 218 221 222 219 216 213 211 212 213 215 217 216 215 215 216 218 216 212 212 216 217 220 222 223 225 228 230 229 229 231 231 231 231 227 231 235 237 238 238 243 243 232 228 228 227 235 237 233 233 231 232 237 239 241 241 240 238
218 219 220 221 223 225 224 223 223 223 223 224 224 222 221 219 216 215 216 217 216 210 209 210 209 208 210 212 213 214 216 217 218 221 219 217 215 214 216 216 215 218 217 215 216 216 217 218 214 212 215 216 218 221 223 227 230 232 231 230 231 232 232 231 228 231 236 238 239 237 242 246 235 224 225 227 234 236 231 228 226 227 232 232 234 236 235 234
217 218 219 221 223 225 224 222 223 222 221 221 220 217 216 214 211 212 212 215 216 210 208 210 208 207 210 211 212 213 217 218 218 219 219 217 217 217 219 217 214 216 218 217 217 217 218 219 219 217 217 218 218 221 223 226 230 232 231 230 230 232 233 231 228 231 235 237 238 236 239 246 239 222 221 228 233 236 231 223 221 224 227 228 230 231 231 230
216 216 217 219 220 221 220 220 220 220 217 215 214 211 209 207 205 207 211 216 218 211 208 211 207 205 208 210 210 212 216 218 217 219 220 219 218 218 219 220 217 217 218 219 219 219 218 218 220 220 220 221 220 219 220 223 227 230 231 231 230 231 232 231 228 228 233 237 237 236 236 244 243 225 218 228 233 235 230 216 218 222 224 226 225 227 228 228
215 215 215 217 218 218 219 219 219 218 214 210 210 209 204 202 202 204 210 216 216 210 208 209 207 205 207 208 208 210 214 215 214 217 219 220 221 218 216 217 218 218 222 222 219 218 217 216 218 218 219 221 220 218 218 219 224 228 230 229 228 229 230 229 228 227 233 236 235 235 235 241 244 228 217 227 232 232 225 212 214 218 222 225 224 225 227 226
214 215 215 217 218 220 221 221 220 218 212 206 207 206 202 201 201 204 211 215 214 211 207 208 207 206 208 210 209 210 213 212 211 214 215 215 219 218 215 214 211 212 217 220 217 216 215 213 217 220 219 219 219 218 217 218 220 225 229 229 227 228 228 229 229 228 232 236 235 234 234 238 239 225 215 223 227 227 222 215 215 219 223 226 225 225 227 227
213 214 216 219 220 222 222 221 220 215 208 203 203 202 200 201 201 204 208 212 214 212 208 207 206 205 209 211 210 212 214 212 210 212 212 212 214 215 216 217 215 211 210 212 214 216 217 215 216 221 221 221 220 218 217 216 217 219 223 226 229 230 228 226 226 227 232 236 236 234 235 236 234 227 218 218 220 225 224 219 218 222 225 226 226 225 226 227
213 215 217 219 220 222 221 219 216 210 204 202 202 200 200 203 203 203 205 208 212 211 208 209 207 205 209 211 210 211 212 213 212 212 212 212 214 215 216 218 220 219 215 213 213 214 217 218 218 219 219 220 221 219 217 216 216 216 216 219 224 228 229 227 226 228 232 236 236 235 235 236 235 232 225 213 212 221 225 223 221 222 227 227 228 228 227 225
212 214 216 218 219 219 218 218 214 205 199 200 202 200 201 205 204 202 205 208 211 211 208 208 207 205 208 211 212 211 212 212 210 211 212 211 212 213 214 216 220 222 220 220 220 217 217 220 220 220 220 222 224 224 221 220 220 221 220 219 220 223 227 230 230 230 232 234 235 234 235 235 234 233 229 215 207 214 222 226 224 225 229 231 232 231 229 226
210 213 215 216 217 216 216 219 213 202 198 199 202 202 203 205 204 202 205 207 208 209 206 205 205 205 207 210 211 212 215 214 210 209 212 212 213 214 214 216 218 220 221 224 224 223 225 226 225 224 226 226 228 228 225 221 221 221 223 222 222 223 226 228 230 232 234 236 236 237 238 237 236 237 237 226 211 211 220 226 229 229 231 233 234 232 229 227
209 211 214 215 216 216 218 220 211 201 199 200 202 205 205 205 204 202 205 206 207 208 204 202 203 204 205 207 208 209 211 212 210 209 212 213 215 217 217 218 220 220 222 227 227 225 226 227 227 229 231 229 226 226 225 223 222 221 222 223 224 227 229 230 232 232 233 236 238 240 241 240 240 240 240 233 220 215 218 223 228 231 232 234 234 234 232 229
210 212 215 217 218 218 221 221 209 199 199 202 204 206 206 205 204 203 204 205 207 209 207 205 205 203 203 205 207 207 206 207 206 207 211 213 214 217 218 218 220 219 219 224 227 226 226 227 229 231 231 228 225 225 227 226 224 222 223 223 224 228 230 232 235 233 232 234 237 239 240 240 239 237 236 234 225 220 221 223 225 229 233 236 235 236 236 231
212 215 217 219 220 220 221 217 205 198 199 204 205 206 206 205 204 203 203 205 208 210 209 208 208 206 204 205 206 206 205 206 205 203 207 213 214 217 218 217 219 219 217 219 222 224 226 229 231 230 227 225 225 229 231 229 227 224 222 223 226 230 229 229 232 234 233 235 237 239 240 240 236 232 233 235 228 224 226 228 228 230 235 237 234 235 238 235
212 215 217 219 219 217 217 211 201 198 202 205 204 205 206 204 203 203 203 204 209 213 212 212 211 208 208 207 207 207 206 206 205 202 204 211 215 216 218 217 219 220 220 222 224 225 227 230 231 230 229 229 230 233 234 231 228 226 222 221 225 230 232 232 233 235 236 237 237 238 240 239 236 233 236 238 232 226 228 231 232 233 237 237 232 232 236 238
212 215 216 218 218 214 210 204 198 199 204 205 203 204 204 202 202 203 203 204 209 213 213 212 211 209 209 209 207 207 208 208 207 202 202 209 215 217 218 218 219 220 221 223 226 228 229 230 232 232 233 235 235 236 235 231 229 228 224 223 224 227 230 232 233 235 236 237 237 238 240 239 236 237 240 241 237 230 229 232 234 235 237 237 231 229 231 235
213 215 216 217 216 211 205 200 198 200 204 203 203 204 202 200 202 204 204 206 210 212 213 213 210 207 208 210 208 206 207 208 207 203 203 208 214 217 219 219 219 219 220 221 224 226 227 228 230 232 235 238 237 237 236 232 232 235 236 234 233 233 233 233 233 233 233 235 235 236 238 238 236 237 239 241 240 233 229 232 233 234 235 232 228 227 229 233
213 216 217 216 213 207 201 199 198 200 203 202 202 204 201 199 203 208 207 207 212 214 214 214 211 206 207 209 208 207 207 207 206 204 204 206 210 215 218 220 219 218 219 220 222 225 227 227 227 230 233 236 236 235 233 234 237 241 243 241 240 240 239 238 237 236 236 237 236 237 238 237 235 237 238 242 243 237 231 231 232 232 230 227 227 229 231 235
214 218 217 213 210 205 199 198 198 201 202 200 201 204 203 200 204 210 210 208 211 214 214 215 212 208 207 209 208 207 208 208 207 206 204 205 207 210 213 216 216 215 216 218 221 223 224 224 224 226 229 232 234 233 234 237 240 240 239 237 237 238 239 240 240 239 240 240 241 243 243 239 236 239 240 243 245 242 234 230 231 230 228 227 230 234 238 241
214 219 215 209 207 203 199 198 198 200 199 198 202 206 205 203 205 210 212 210 211 213 215 216 215 212 209 208 208 208 209 210 209 207 205 205 206 208 209 211 213 214 215 217 220 223 225 225 225 225 227 231 234 235 236 239 241 241 237 235 235 235 235 237 237 237 239 238 239 243 243 238 237 239 240 241 244 243 238 232 231 231 231 233 237 241 245 248
215 217 210 204 204 202 198 198 198 198 196 196 203 208 206 205 206 208 211 211 211 214 217 217 216 216 213 210 209 208 209 211 211 208 207 205 205 206 207 208 210 211 213 216 219 223 226 228 229 228 229 231 234 235 236 237 241 242 237 232 232 231 230 230 232 236 238 237 237 239 239 237 237 238 238 239 240 241 239 234 232 233 235 239 242 243 246 250
215 214 203 198 200 200 199 198 197 197 197 197 203 207 206 206 205 205 208 210 210 212 217 220 218 217 216 213 212 211 210 211 211 210 209 207 206 206 207 209 211 212 212 215 217 220 224 228 230 232 234 237 239 240 241 241 242 242 236 229 227 227 227 229 234 239 239 238 241 241 240 240 239 238 239 239 239 240 239 235 234 237 240 242 244 245 246 249
215 208 199 195 196 198 198 198 196 196 199 202 204 206 206 206 206 206 205 208 210 209 214 221 222 219 216 214 213 212 211 211 212 211 210 210 208 208 209 211 214 215 214 214 216 218 224 229 231 233 234 237 240 241 242 241 241 240 235 228 226 230 236 241 246 246 245 246 246 241 240 241 239 239 241 240 239 240 240 238 236 238 244 246 247 247 246 247
212 202 197 196 196 196 197 196 196 197 200 204 209 210 208 207 208 209 206 207 208 207 209 217 223 220 215 213 214 213 212 212 213 212 211 211 210 211 212 213 214 215 214 214 216 217 221 227 231 233 234 233 233 236 238 239 240 240 238 235 237 243 249 253 254 253 253 257 253 244 243 246 241 240 241 241 241 241 241 241 238 238 243 247 247 247 247 247
207 199 196 195 193 193 195 195 197 201 203 205 210 213 210 209 211 211 208 208 208 206 206 212 219 219 214 211 212 213 213 214 214 214 213 213 213 213 213 214 215 216 216 216 216 216 218 221 226 232 234 232 232 234 236 238 239 239 240 241 243 247 249 251 252 250 251 256 253 244 245 247 242 241 242 243 245 245 245 245 244 243 245 247 247 248 248 247
200 196 194 191 190 194 199 201 203 208 210 208 209 212 211 210 213 214 211 210 210 208 207 209 215 220 220 217 216 214 213 213 215 217 218 217 216 216 216 215 215 217 218 219 218 217 217 217 219 226 231 230 230 233 235 236 238 237 238 239 239 240 241 241 241 241 242 248 247 241 241 241 237 239 242 243 245 247 247 248 248 248 248 248 248 248 248 247
196 195 193 191 194 202 207 207 208 210 210 207 207 210 210 209 211 213 213 213 214 213 211 212 216 219 221 220 219 215 212 210 212 216 220 222 221 220 220 218 217 217 219 220 221 221 220 218 216 223 230 230 229 231 233 235 238 237 235 234 233 233 234 235 238 239 242 246 246 242 241 238 235 238 242 243 245 245 245 246 248 248 248 247 247 247 247 246
195 196 194 195 203 212 210 206 206 207 207 207 208 210 209 208 208 209 210 213 215 215 214 214 216 219 220 220 218 215 213 211 210 211 215 219 222 223 223 222 220 220 221 222 222 223 223 221 219 222 229 231 230 232 235 239 242 241 237 235 234 232 232 235 238 240 242 246 246 245 244 242 241 243 244 244 247 246 245 246 249 251 250 248 247 246 245 245
Height
5618 5623 5627 5633 5639 5645 5650 5655 5660 5664 5669 5673 5678 5681 5683 5687 5694 5701 5705 5707 5712 5717 5723 5731 5737 5742 5747 5752 5754 5756 5761 5766 5772 5775 5779 5790 5800 5806 5809 5812 5814 5815 5816 5819 5824 5827 5830 5833 5837 5840 5843 5845 5847 5848 5849 5850 5852 5853 5854 5856 5859 5862 5864 5865 5866 5867 5868 5870 5872 5873 5874 5876 5877 5878 5878 5879 5879 5880 5880 5880 5881 5881 5881 5882 5883 5884 5885 5886
5610 5615 5619 5624 5630 5636 5642 5647 5652 5656 5661 5666 5669 5673 5675 5679 5685 5692 5698 5701 5704 5709 5715 5724 5730 5736 5742 5746 5749 5752 5757 5762 5764 5767 5776 5788 5794 5799 5804 5806 5808 5811 5812 5816 5820 5824 5828 5832 5834 5837 5840 5842 5844 5845 5846 5848 5849 5851 5852 5855 5858 5860 5861 5862 5864 5866 5867 5868 5870 5871 5873 5874 5875 5877 5877 5878 5878 5878 5879 5879 5880 5881 5881 5881 5882 5883 5884 5885
5603 5607 5611 5616 5621 5628 5633 5639 5644 5648 5653 5658 5661 5666 5668 5670 5676 5684 5691 5693 5696 5702 5707 5715 5723 5730 5735 5739 5743 5747 5753 5756 5756 5763 5775 5784 5788 5793 5798 5801 5804 5807 5809 5812 5817 5820 5824 5828 5830 5832 5835 5837 5839 5841 5843 5845 5847 5848 5850 5854 5857 5857 5857 5859 5862 5864 5865 5866 5868 5869 5871 5872 5873 5875 5876 5877 5877 5877 5878 5879 5880 5880 5881 5881 5881 5883 5883 5884
5596 5600 5604 5608 5613 5619 5625 5631 5635 5641 5645 5649 5654 5657 5660 5663 5668 5675 5683 5686 5688 5693 5699 5707 5715 5723 5729 5734 5737 5742 5748 5746 5748 5762 5774 5779 5783 5788 5793 5797 5800 5803 5805 5809 5813 5817 5820 5823 5824 5827 5829 5832 5835 5837 5839 5842 5844 5846 5849 5854 5855 5854 5855 5857 5860 5862 5863 5864 5866 5867 5869 5870 5872 5873 5875 5876 5876 5876 5877 5878 5879 5879 5880 5881 5881 5882 5882 5883
5588 5592 5597 5601 5606 5611 5617 5622 5628 5633 5637 5642 5646 5649 5653 5656 5660 5667 5675 5679 5680 5686 5693 5697 5706 5717 5724 5728 5731 5738 5742 5737 5744 5760 5768 5772 5777 5783 5789 5793 5795 5799 5802 5805 5809 5813 5816 5818 5820 5823 5825 5829 5831 5833 5836 5840 5842 5844 5848 5852 5852 5852 5853 5855 5857 5860 5861 5863 5864 5865 5866 5868 5870 5872 5873 5874 5874 5875 5876 5877 5877 5878 5879 5880 5880 5881 5881 5882
5581 5585 5590 5594 5599 5604 5609 5615 5620 5625 5629 5634 5638 5642 5646 5649 5653 5659 5667 5672 5673 5678 5685 5689 5699 5710 5718 5724 5729 5733 5731 5730 5743 5756 5762 5766 5770 5777 5784 5787 5790 5794 5797 5801 5805 5809 5812 5814 5816 5819 5822 5826 5829 5832 5836 5838 5840 5843 5846 5849 5850 5851 5852 5853 5855 5857 5859 5860 5862 5863 5864 5866 5868 5870 5871 5873 5873 5874 5875 5875 5876 5878 5878 5879 5879 5880 5881 5881
5574 5578 5582 5587 5592 5596 5602 5607 5612 5617 5622 5626 5630 5635 5638 5642 5647 5651 5659 5665 5666 5671 5677 5682 5691 5702 5712 5719 5723 5724 5721 5728 5743 5752 5757 5761 5765 5772 5777 5780 5785 5789 5794 5797 5801 5805 5808 5810 5813 5816 5819 5823 5827 5831 5835 5836 5838 5841 5844 5846 5848 5849 5850 5850 5852 5854 5856 5858 5859 5861 5863 5864 5866 5868 5869 5871 5871 5873 5874 5874 5875 5876 5877 5878 5878 5879 5880 5881
5567 5571 5576 5580 5585 5589 5594 5600 5605 5610 5615 5619 5623 5627 5631 5636 5639 5645 5652 5657 5660 5663 5670 5675 5683 5694 5703 5708 5713 5711 5713 5730 5745 5749 5752 5754 5761 5766 5768 5773 5779 5784 5790 5794 5798 5802 5804 5807 5810 5813 5816 5820 5825 5830 5832 5833 5835 5838 5842 5845 5845 5846 5847 5847 5848 5851 5853 5855 5856 5858 5861 5862 5864 5865 5868 5870 5869 5871 5873 5873 5874 5874 5875 5876 5877 5878 5879 5880
5560 5565 5569 5573 5578 5583 5587 5593 5598 5603 5607 5612 5616 5620 5625 5629 5633 5639 5644 5650 5654 5656 5663 5669 5675 5685 5691 5698 5703 5700 5713 5735 5744 5745 5747 5750 5755 5758 5761 5767 5774 5780 5786 5789 5794 5800 5801 5803 5808 5810 5814 5818 5823 5826 5828 5829 5831 5836 5840 5841 5842 5843 5843 5843 5845 5847 5849 5852 5854 5856 5858 5859 5861 5863 5867 5868 5867 5869 5871 5872 5872 5873 5873 5874 5876 5877 5877 5878
5554 5559 5563 5567 5571 5576 5581 5586 5591 5596 5600 5605 5609 5613 5618 5622 5627 5632 5637 5643 5646 5650 5658 5662 5669 5675 5680 5689 5691 5696 5718 5730 5732 5738 5744 5747 5749 5752 5757 5763 5770 5776 5781 5784 5790 5797 5800 5801 5805 5807 5810 5814 5818 5821 5823 5824 5828 5833 5836 5836 5837 5838 5838 5839 5841 5844 5846 5848 5851 5853 5855 5856 5858 5862 5866 5866 5865 5867 5869 5870 5871 5871 5872 5873 5874 5875 5876 5877
5547 5552 5556 5561 5565 5569 5574 5579 5584 5589 5593 5598 5603 5607 5611 5616 5620 5625 5631 5636 5640 5645 5650 5657 5663 5666 5672 5679 5681 5697 5716 5719 5724 5735 5738 5742 5745 5749 5754 5759 5765 5771 5776 5780 5786 5793 5796 5798 5801 5803 5805 5808 5812 5816 5817 5820 5824 5829 5830 5830 5833 5834 5835 5836 5839 5841 5843 5845 5847 5850 5851 5852 5856 5861 5865 5863 5862 5865 5866 5868 5869 5870 5871 5872 5873 5874 5875 5875
5541 5546 5550 5555 5559 5563 5568 5572 5578 5582 5587 5592 5596 5600 5605 5609 5614 5619 5624 5630 5635 5638 5644 5652 5655 5658 5665 5666 5675 5699 5711 5713 5723 5728 5730 5737 5741 5745 5750 5755 5762 5768 5773 5777 5782 5787 5791 5794 5796 5798 5801 5804 5808 5811 5813 5817 5820 5822 5824 5826 5829 5830 5830 5833 5836 5838 5840 5842 5845 5845 5846 5849 5854 5861 5863 5859 5859 5862 5863 5866 5867 5868 5869 5870 5872 5872 5873 5873
5535 5540 5544 5549 5553 5557 5561 5566 5571 5576 5581 5586 5590 5594 5598 5603 5608 5613 5618 5623 5629 5632 5639 5646 5647 5653 5655 5656 5678 5699 5703 5710 5718 5719 5724 5731 5734 5739 5744 5750 5758 5764 5769 5774 5779 5783 5786 5790 5793 5795 5797 5800 5804 5806 5809 5813 5815 5817 5819 5821 5824 5824 5825 5830 5833 5834 5837 5839 5842 5841 5841 5847 5854 5859 5858 5855 5856 5858 5861 5864 5865 5866 5867 5868 5870 5871 5871 5872
5530 5534 5538 5543 5548 5552 5556 5560 5564 5569 5575 5579 5584 5588 5592 5597 5602 5607 5612 5617 5623 5626 5633 5638 5641 5646 5646 5656 5679 5687 5693 5705 5709 5711 5719 5724 5729 5734 5738 5747 5754 5759 5764 5770 5774 5777 5780 5785 5789 5790 5792 5794 5799 5801 5804 5807 5809 5812 5814 5815 5818 5818 5821 5828 5830 5832 5834 5836 5839 5838 5837 5846 5854 5854 5853 5852 5853 5855 5859 5862 5863 5864 5865 5866 5867 5868 5869 5870
5524 5529 5533 5538 5542 5546 5550 5554 5558 5563 5568 5573 5578 5581 5586 5590 5595 5601 5606 5611 5617 5620 5626 5631 5634 5638 5641 5652 5666 5672 5686 5698 5699 5707 5713 5719 5726 5729 5734 5743 5751 5756 5760 5764 5770 5773 5775 5778 5783 5783 5785 5789 5793 5795 5797 5800 5803 5806 5806 5809 5812 5813 5818 5826 5827 5828 5831 5832 5834 5834 5834 5845 5851 5849 5849 5849 5851 5852 5855 5858 5860 5861 5862 5863 5865 5866 5867 5868
5519 5524 5528 5532 5536 5541 5545 5548 5553 5557 5562 5567 5571 5575 5579 5584 5589 5594 5599 5605 5611 5613 5618 5623 5626 5632 5636 5645 5656 5665 5680 5690 5697 5704 5708 5715 5721 5725 5731 5736 5744 5751 5755 5760 5764 5767 5769 5772 5777 5777 5779 5783 5786 5790 5792 5794 5798 5800 5801 5804 5808 5811 5816 5822 5823 5824 5828 5828 5829 5830 5833 5843 5848 5846 5845 5846 5849 5850 5851 5854 5856 5858 5859 5860 5862 5863 5865 5866
5513 5518 5522 5527 5531 5535 5539 5543 5547 5551 5556 5560 5564 5569 5573 5577 5582 5587 5593 5598 5602 5605 5611 5617 5622 5628 5633 5641 5649 5659 5676 5690 5695 5697 5703 5710 5715 5721 5726 5729 5737 5745 5750 5754 5756 5760 5763 5767 5770 5771 5773 5776 5781 5785 5786 5787 5792 5795 5798 5801 5804 5808 5812 5816 5818 5822 5824 5824 5826 5827 5831 5840 5844 5842 5842 5843 5845 5846 5847 5850 5852 5855 5857 5858 5860 5861 5863 5864
5508 5513 5517 5522 5526 5530 5534 5537 5541 5545 5549 5554 5558 5561 5565 5570 5573 5578 5585 5588 5593 5598 5602 5609 5616 5618 5623 5632 5641 5656 5675 5685 5686 5691 5699 5704 5710 5716 5720 5725 5731 5737 5743 5746 5749 5753 5756 5759 5762 5763 5766 5769 5773 5778 5779 5783 5791 5795 5797 5799 5801 5805 5809 5812 5817 5822 5823 5822 5824 5824 5827 5836 5840 5839 5838 5838 5840 5841 5843 5846 5848 5851 5854 5856 5857 5859 5861 5862
5502 5507 5512 5516 5520 5524 5528 5532 5536 5539 5543 5546 5550 5553 5558 5561 5564 5569 5575 5579 5582 5584 5587 5597 5603 5606 5618 5632 5642 5657 5670 5675 5679 5685 5690 5696 5704 5709 5714 5720 5725 5730 5734 5736 5739 5742 5746 5750 5751 5753 5757 5763 5771 5778 5782 5788 5793 5796 5797 5797 5799 5803 5808 5813 5818 5821 5821 5819 5819 5820 5823 5832 5836 5834 5834 5834 5834 5836 5839 5842 5845 5848 5851 5854 5855 5857 5858 5860
5497 5503 5507 5511 5515 5519 5523 5527 5530 5533 5535 5538 5542 5547 5550 5552 5557 5562 5568 5572 5576 5581 5587 5596 5604 5611 5626 5636 5641 5651 5661 5666 5671 5676 5682 5691 5698 5702 5708 5713 5718 5722 5724 5728 5733 5736 5740 5741 5741 5749 5758 5766 5774 5780 5784 5786 5789 5790 5791 5793 5795 5800 5805 5810 5814 5816 5815 5814 5814 5816 5819 5826 5830 5829 5831 5830 5829 5832 5836 5840 5843 5846 5848 5850 5852 5854 5855 5858
5493 5498 5502 5506 5510 5514 5518 5521 5524 5527 5529 5532 5537 5541 5546 5551 5557 5564 5570 5572 5576 5583 5589 5597 5605 5615 5626 5631 5636 5645 5652 5658 5664 5671 5679 5686 5691 5696 5700 5705 5709 5712 5717 5724 5727 5729 5733 5732 5738 5753 5762 5768 5773 5775 5778 5780 5782 5784 5786 5790 5793 5796 5802 5807 5810 5811 5810 5809 5810 5812 5813 5819 5825 5825 5827 5826 5824 5828 5834 5837 5840 5842 5844 5846 5849 5852 5853 5855
5489 5493 5497 5501 5505 5510 5513 5515 5519 5521 5522 5527 5532 5538 5547 5554 5559 5565 5568 5569 5575 5582 5585 5591 5598 5607 5616 5622 5631 5640 5644 5649 5658 5665 5671 5677 5682 5687 5693 5699 5701 5706 5714 5716 5717 5720 5721 5726 5743 5758 5762 5764 5766 5769 5772 5774 5776 5779 5783 5787 5789 5793 5799 5803 5806 5806 5806 5804 5806 5808 5807 5814 5821 5821 5822 5821 5819 5826 5832 5834 5837 5838 5841 5843 5846 5849 5850 5852
5484 5488 5493 5496 5501 5505 5507 5510 5512 5513 5518 5524 5530 5539 5548 5551 5552 5555 5557 5561 5569 5574 5576 5583 5592 5601 5610 5615 5623 5631 5636 5641 5649 5656 5662 5669 5677 5682 5687 5692 5696 5704 5707 5705 5710 5713 5715 5730 5749 5755 5755 5756 5759 5762 5765 5767 5769 5773 5778 5782 5784 5790 5795 5798 5802 5803 5802 5801 5802 5804 5803 5808 5816 5816 5817 5818 5817 5823 5828 5831 5833 5835 5838 5841 5843 5845 5847 5848
5479 5484 5487 5492 5496 5499 5503 5505 5505 5510 5517 5523 5530 5538 5542 5541 5543 5548 5552 5556 5560 5563 5569 5579 5588 5597 5605 5611 5616 5622 5629 5635 5642 5650 5656 5663 5672 5678 5681 5688 5694 5698 5699 5702 5709 5712 5720 5738 5745 5745 5748 5750 5752 5755 5758 5760 5763 5767 5773 5777 5781 5787 5791 5795 5799 5798 5798 5797 5797 5800 5797 5801 5810 5811 5813 5817 5815 5819 5825 5828 5830 5832 5835 5838 5839 5842 5844 5845
5474 5478 5483 5487 5491 5494 5497 5498 5502 5510 5514 5519 5528 5533 5533 5535 5540 5545 5548 5549 5551 5558 5565 5571 5577 5586 5596 5604 5609 5618 5627 5632 5636 5643 5650 5659 5669 5674 5678 5684 5689 5690 5695 5703 5707 5711 5722 5731 5735 5740 5744 5742 5743 5747 5751 5755 5759 5762 5768 5774 5778 5784 5788 5791 5794 5793 5793 5792 5794 5796 5792 5794 5805 5808 5811 5815 5813 5816 5822 5824 5827 5830 5832 5835 5837 5839 5841 5841
5469 5473 5479 5483 5486 5489 5490 5494 5502 5506 5509 5517 5525 5527 5528 5532 5538 5541 5543 5542 5543 5550 5555 5560 5567 5576 5587 5594 5601 5614 5620 5624 5633 5640 5646 5656 5665 5670 5674 5678 5682 5687 5695 5702 5702 5707 5716 5721 5729 5735 5734 5734 5737 5742 5748 5754 5757 5760 5767 5774 5776 5781 5784 5785 5789 5789 5788 5789 5791 5793 5789 5789 5800 5805 5808 5812 5809 5812 5819 5820 5825 5828 5829 5832 5834 5835 5837 5838
5464 5469 5474 5478 5481 5484 5487 5495 5500 5501 5509 5517 5520 5522 5524 5528 5533 5537 5539 5535 5534 5541 5549 5554 5562 5573 5583 5590 5598 5605 5606 5616 5629 5634 5640 5650 5657 5663 5666 5669 5676 5684 5691 5694 5693 5700 5710 5716 5722 5724 5724 5726 5731 5739 5749 5754 5756 5760 5767 5772 5773 5777 5779 5780 5784 5784 5784 5786 5787 5790 5788 5785 5793 5802 5806 5806 5805 5809 5815 5818 5823 5825 5827 5829 5830 5831 5833 5834
5460 5465 5469 5473 5477 5481 5487 5493 5495 5500 5509 5511 5512 5516 5519 5524 5531 5533 5531 5524 5524 5536 5545 5549 5561 5573 5580 5586 5593 5597 5606 5620 5626 5628 5637 5645 5650 5656 5660 5665 5674 5682 5686 5687 5690 5701 5709 5712 5717 5720 5719 5722 5731 5742 5748 5751 5754 5758 5763 5766 5769 5772 5773 5775 5779 5780 5781 5781 5781 5786 5787 5782 5786 5800 5804 5802 5803 5805 5812 5818 5821 5823 5824 5825 5826 5827 5829 5830
5456 5460 5464 5469 5473 5477 5483 5488 5491 5496 5501 5503 5506 5509 5514 5522 5526 5524 5522 5517 5521 5536 5543 5548 5559 5566 5570 5578 5586 5594 5606 5615 5617 5626 5636 5639 5643 5651 5657 5665 5674 5679 5682 5685 5693 5700 5703 5708 5716 5717 5715 5722 5733 5738 5740 5746 5749 5753 5757 5761 5765 5767 5768 5770 5773 5776 5777 5774 5776 5783 5786 5782 5781 5794 5801 5798 5799 5805 5812 5819 5819 5819 5820 5821 5823 5824 5825 5827
5451 5456 5460 5464 5468 5473 5479 5483 5487 5490 5494 5498 5501 5503 5509 5515 5515 5514 5511 5509 5519 5533 5539 5545 5552 5556 5562 5571 5580 5590 5599 5603 5612 5625 5630 5633 5641 5649 5656 5665 5671 5673 5676 5681 5687 5692 5697 5705 5707 5706 5711 5720 5726 5728 5734 5741 5743 5747 5751 5754 5759 5761 5763 5765 5767 5772 5771 5767 5773 5781 5784 5782 5778 5787 5797 5796 5799 5807 5811 5814 5814 5815 5816 5817 5820 5822 5823 5824
5447 5452 5456 5460 5465 5471 5476 5480 5484 5486 5490 5493 5496 5500 5504 5505 5506 5506 5503 5507 5520 5528 5533 5539 5545 5553 5561 5566 5576 5587 5592 5598 5609 5616 5620 5629 5636 5641 5649 5654 5657 5662 5668 5673 5679 5685 5691 5695 5696 5701 5709 5713 5716 5723 5730 5735 5738 5742 5746 5749 5755 5756 5758 5762 5764 5767 5765 5764 5773 5779 5781 5780 5775 5782 5794 5796 5800 5805 5807 5809 5811 5812 5813 5815 5818 5819 5820 5822
5443 5448 5452 5457 5463 5467 5472 5477 5480 5481 5484 5489 5492 5495 5496 5498 5498 5497 5501 5511 5517 5520 5529 5535 5541 5552 5560 5566 5576 5585 5587 5594 5602 5606 5615 5625 5629 5633 5639 5642 5646 5653 5658 5664 5672 5679 5683 5689 5695 5700 5703 5706 5711 5718 5723 5727 5730 5734 5739 5745 5749 5751 5753 5756 5757 5760 5763 5765 5771 5775 5775 5773 5772 5780 5791 5796 5800 5802 5804 5807 5809 5809 5810 5812 5814 5816 5818 5819
5440 5444 5448 5453 5459 5464 5468 5472 5473 5475 5480 5485 5487 5488 5491 5490 5489 5493 5502 5509 5509 5517 5529 5535 5542 5553 5558 5562 5571 5578 5584 5592 5599 5604 5613 5621 5626 5631 5636 5640 5646 5651 5655 5662 5668 5673 5678 5685 5688 5688 5693 5699 5704 5709 5714 5718 5721 5726 5734 5739 5742 5745 5747 5749 5751 5755 5760 5763 5766 5769 5767 5765 5770 5777 5786 5795 5799 5800 5802 5804 5806 5807 5808 5810 5812 5814 5816 5818
5436 5440 5444 5450 5455 5459 5463 5467 5468 5471 5477 5480 5481 5483 5484 5482 5485 5495 5502 5504 5510 5521 5528 5533 5542 5550 5553 5559 5567 5573 5580 5587 5595 5602 5609 5614 5618 5624 5630 5636 5642 5647 5653 5659 5663 5668 5673 5675 5678 5684 5692 5697 5701 5708 5714 5720 5723 5727 5732 5735 5736 5739 5741 5744 5747 5749 5754 5757 5759 5760 5757 5760 5770 5775 5781 5793 5798 5798 5800 5801 5803 5805 5806 5807 5809 5811 5814 5816
5431 5435 5440 5445 5450 5454 5460 5463 5465 5469 5473 5474 5476 5476 5475 5477 5485 5493 5497 5503 5512 5519 5524 5532 5539 5544 5548 5556 5565 5572 5579 5586 5593 5598 5603 5607 5611 5617 5625 5631 5635 5640 5645 5650 5657 5665 5669 5672 5680 5688 5693 5697 5702 5708 5713 5716 5717 5721 5727 5727 5729 5734 5737 5740 5742 5746 5751 5752 5752 5752 5752 5761 5771 5773 5779 5790 5795 5797 5798 5799 5801 5803 5804 5804 5806 5809 5812 5813
5426 5431 5435 5440 5446 5452 5456 5459 5461 5466 5470 5471 5470 5469 5471 5478 5486 5491 5498 5505 5511 5515 5522 5528 5532 5537 5543 5551 5556 5564 5574 5581 5587 5594 5598 5603 5609 5615 5622 5628 5633 5637 5642 5649 5655 5661 5666 5673 5680 5683 5687 5694 5700 5703 5706 5708 5711 5716 5717 5718 5725 5732 5734 5736 5739 5742 5745 5744 5745 5748 5751 5761 5769 5768 5773 5784 5790 5793 5795 5796 5798 5799 5800 5800 5803 5807 5809 5810
5422 5427 5432 5437 5444 5448 5452 5455 5459 5462 5466 5466 5465 5466 5473 5480 5486 5492 5499 5505 5510 5515 5521 5523 5525 5530 5538 5544 5549 5557 5566 5572 5579 5587 5592 5598 5604 5610 5617 5625 5630 5636 5643 5649 5654 5660 5668 5673 5674 5677 5684 5691 5696 5698 5700 5703 5706 5708 5710 5717 5726 5727 5727 5732 5733 5733 5735 5735 5739 5744 5748 5756 5761 5762 5767 5777 5785 5789 5791 5794 5795 5795 5795 5797 5801 5804 5804 5806
5420 5424 5428 5434 5440 5444 5448 5452 5455 5460 5462 5461 5461 5467 5473 5478 5484 5491 5497 5502 5508 5512 5517 5521 5524 5530 5536 5540 5546 5555 5561 5565 5572 5580 5587 5593 5598 5604 5612 5620 5626 5635 5643 5647 5651 5658 5664 5666 5669 5674 5680 5683 5686 5688 5690 5693 5696 5700 5709 5719 5719 5714 5718 5724 5724 5725 5730 5731 5735 5740 5743 5747 5753 5758 5763 5772 5781 5786 5788 5790 5791 5792 5793 5795 5798 5800 5800 5803
5416 5419 5424 5432 5436 5440 5444 5449 5453 5456 5455 5454 5457 5464 5470 5476 5483 5489 5493 5499 5504 5508 5512 5518 5524 5530 5536 5540 5547 5554 5558 5562 5570 5578 5584 5589 5594 5601 5609 5616 5623 5632 5638 5642 5647 5653 5658 5660 5664 5669 5673 5674 5678 5679 5680 5685 5691 5696 5704 5707 5705 5707 5714 5720 5721 5724 5728 5730 5734 5737 5736 5740 5750 5757 5760 5767 5777 5782 5784 5786 5788 5789 5790 5791 5794 5795 5797 5799
5412 5415 5423 5430 5432 5435 5441 5445 5447 5448 5447 5450 5457 5463 5469 5476 5481 5486 5491 5496 5500 5503 5509 5516 5523 5528 5534 5539 5546 5552 5557 5563 5570 5577 5583 5587 5593 5599 5606 5612 5619 5628 5634 5639 5644 5648 5652 5655 5659 5663 5665 5665 5667 5670 5677 5685 5690 5693 5696 5697 5699 5704 5708 5713 5717 5720 5723 5726 5730 5730 5729 5737 5749 5754 5755 5761 5770 5778 5781 5783 5784 5785 5786 5787 5789 5791 5793 5795
5409 5413 5421 5426 5427 5430 5435 5437 5438 5440 5443 5450 5456 5462 5468 5474 5480 5484 5488 5493 5496 5501 5508 5515 5520 5526 5533 5538 5543 5549 5554 5561 5568 5574 5579 5584 5590 5596 5602 5609 5616 5624 5629 5632 5635 5640 5645 5651 5655 5657 5657 5659 5664 5673 5682 5687 5688 5692 5695 5698 5702 5704 5705 5707 5708 5711 5715 5717 5721 5724 5723 5730 5742 5747 5751 5756 5764 5774 5778 5779 5781 5782 5782 5784 5785 5787 5790 5791
5404 5411 5420 5423 5422 5425 5428 5430 5434 5438 5442 5448 5455 5461 5467 5473 5478 5482 5486 5491 5495 5500 5507 5512 5517 5524 5530 5534 5541 5547 5551 5556 5563 5568 5574 5581 5588 5594 5600 5606 5614 5620 5624 5628 5634 5639 5643 5648 5650 5652 5655 5660 5665 5671 5676 5678 5683 5687 5688 5692 5697 5698 5698 5700 5702 5709 5713 5713 5718 5721 5716 5722 5736 5744 5749 5753 5758 5768 5775 5776 5778 5779 5779 5781 5782 5784 5786 5788
5402 5409 5416 5418 5418 5420 5423 5426 5431 5436 5440 5446 5454 5461 5466 5470 5474 5478 5484 5489 5493 5498 5503 5508 5514 5520 5525 5530 5537 5543 5548 5554 5559 5565 5574 5582 5588 5594 5597 5602 5609 5614 5618 5624 5630 5633 5635 5639 5642 5648 5653 5657 5659 5663 5666 5670 5674 5675 5676 5681 5686 5687 5692 5697 5701 5708 5710 5710 5717 5716 5710 5719 5736 5744 5749 5752 5755 5763 5770 5773 5775 5776 5777 5778 5779 5781 5783 5784
5401 5406 5410 5413 5414 5415 5417 5421 5428 5434 5439 5445 5452 5457 5463 5468 5471 5475 5482 5487 5492 5497 5501 5506 5512 5518 5522 5528 5533 5538 5544 5550 5555 5562 5571 5578 5585 5591 5594 5598 5603 5606 5611 5618 5623 5626 5630 5633 5636 5642 5645 5647 5649 5652 5655 5659 5663 5666 5671 5676 5680 5685 5690 5691 5695 5699 5699 5703 5711 5708 5704 5719 5735 5739 5743 5747 5749 5755 5763 5769 5771 5772 5773 5773 5774 5777 5778 5779
5397 5400 5405 5410 5411 5412 5415 5421 5428 5434 5438 5443 5449 5456 5461 5466 5469 5473 5479 5486 5491 5496 5499 5504 5511 5517 5522 5527 5531 5535 5539 5544 5551 5559 5566 5572 5580 5585 5588 5593 5597 5600 5608 5616 5621 5624 5627 5627 5630 5634 5635 5637 5640 5644 5650 5658 5662 5665 5670 5673 5676 5681 5683 5685 5691 5691 5691 5700 5705 5699 5703 5720 5730 5730 5734 5738 5741 5747 5755 5761 5764 5765 5767 5768 5769 5771 5772 5774
5392 5395 5400 5405 5408 5411 5415 5421 5426 5432 5438 5441 5446 5453 5459 5463 5468 5472 5478 5484 5489 5493 5497 5501 5508 5513 5518 5523 5527 5531 5535 5540 5546 5554 5560 5567 5573 5578 5583 5588 5592 5597 5605 5611 5615 5619 5620 5620 5623 5628 5632 5637 5644 5650 5657 5661 5660 5661 5665 5670 5673 5677 5679 5683 5684 5682 5689 5699 5697 5695 5707 5718 5722 5725 5727 5730 5733 5738 5744 5751 5756 5759 5760 5762 5764 5765 5767 5768
5388 5392 5397 5402 5405 5408 5412 5418 5423 5429 5436 5442 5445 5450 5455 5461 5466 5470 5475 5480 5486 5492 5495 5497 5502 5508 5513 5518 5524 5528 5533 5537 5541 5548 5556 5563 5569 5575 5580 5584 5589 5594 5600 5603 5607 5612 5614 5614 5618 5623 5630 5638 5644 5648 5650 5650 5652 5657 5664 5667 5669 5672 5675 5675 5674 5680 5691 5691 5686 5696 5708 5709 5714 5721 5720 5721 5727 5730 5734 5742 5749 5753 5755 5757 5759 5760 5762 5763
5384 5390 5397 5401 5403 5406 5411 5417 5423 5427 5433 5439 5443 5448 5454 5460 5463 5467 5472 5477 5483 5489 5492 5494 5499 5504 5510 5517 5522 5526 5530 5533 5537 5543 5550 5556 5563 5569 5574 5579 5583 5589 5594 5595 5599 5605 5607 5610 5616 5620 5626 5633 5637 5636 5638 5642 5646 5652 5657 5660 5663 5666 5666 5667 5671 5681 5687 5681 5683 5700 5704 5699 5708 5714 5711 5714 5720 5721 5725 5733 5739 5746 5749 5751 5753 5754 5756 5759
5383 5389 5394 5398 5403 5409 5414 5420 5425 5428 5431 5435 5440 5446 5452 5458 5462 5466 5471 5476 5480 5485 5489 5492 5497 5502 5508 5514 5518 5523 5527 5531 5536 5541 5547 5553 5558 5563 5568 5572 5576 5582 5586 5588 5593 5599 5601 5605 5613 5616 5619 5626 5627 5628 5633 5637 5639 5643 5648 5651 5655 5657 5659 5663 5668 5675 5678 5676 5682 5693 5693 5692 5702 5707 5708 5712 5712 5712 5719 5725 5731 5739 5744 5746 5748 5749 5751 5753
5383 5389 5394 5399 5403 5409 5414 5418 5422 5426 5429 5433 5438 5444 5450 5456 5461 5466 5470 5475 5479 5483 5488 5491 5496 5501 5506 5511 5516 5520 5526 5532 5537 5543 5547 5552 5555 5560 5564 5567 5573 5579 5581 5584 5589 5592 5594 5601 5608 5610 5613 5616 5619 5624 5628 5629 5631 5636 5639 5642 5647 5649 5652 5656 5661 5667 5670 5669 5676 5684 5681 5684 5696 5704 5706 5706 5704 5707 5714 5719 5724 5730 5736 5740 5742 5744 5746 5747
5382 5388 5395 5399 5403 5407 5411 5415 5419 5422 5425 5430 5435 5441 5447 5453 5459 5465 5470 5474 5478 5484 5489 5493 5496 5499 5503 5508 5514 5520 5525 5530 5535 5540 5544 5547 5552 5556 5559 5562 5570 5574 5575 5579 5584 5586 5590 5597 5602 5604 5604 5606 5613 5618 5620 5623 5626 5626 5628 5633 5638 5640 5644 5650 5657 5663 5664 5666 5674 5677 5673 5681 5697 5700 5697 5698 5699 5702 5708 5712 5715 5719 5725 5732 5735 5737 5740 5741
5381 5386 5392 5397 5401 5404 5407 5411 5415 5419 5423 5428 5434 5440 5446 5451 5457 5462 5467 5471 5476 5482 5487 5491 5494 5498 5501 5506 5513 5519 5523 5527 5531 5535 5537 5541 5546 5549 5552 5558 5565 5568 5570 5574 5578 5581 5586 5591 5595 5596 5596 5600 5608 5611 5616 5620 5614 5609 5617 5628 5634 5638 5643 5648 5653 5659 5662 5664 5667 5668 5673 5686 5692 5688 5689 5695 5697 5699 5703 5705 5705 5707 5714 5721 5726 5730 5732 5733